TimeEDT,TemperatureF,Dew PointF,Humidity,Sea Level PressureIn,VisibilityMPH,Wind Direction,Wind SpeedMPH,Gust SpeedMPH,PrecipitationIn,Events,Conditions,WindDirDegrees,DateUTC
12:51 AM,51.1,46.0,83,29.74,10.0,WNW,3.5,-,N/A,,Overcast,300,2013-05-12 04:51:00
1:14 AM,51.8,46.4,82,29.73,10.0,Calm,Calm,-,N/A,,Overcast,0,2013-05-12 05:14:00
1:51 AM,51.1,45.0,80,29.73,10.0,Calm,Calm,-,N/A,,Overcast,0,2013-05-12 05:51:00
2:03 AM,51.8,44.6,76,29.72,10.0,Calm,Calm,-,N/A,,Overcast,0,2013-05-12 06:03:00
2:36 AM,50.0,44.6,82,29.70,10.0,Calm,Calm,-,N/A,,Overcast,0,2013-05-12 06:36:00
2:51 AM,50.0,45.0,83,29.71,10.0,Calm,Calm,-,N/A,,Overcast,0,2013-05-12 06:51:00
3:10 AM,51.8,44.6,76,29.70,10.0,Calm,Calm,-,N/A,,Overcast,0,2013-05-12 07:10:00
3:20 AM,50.0,44.6,82,29.70,10.0,Calm,Calm,-,N/A,,Overcast,0,2013-05-12 07:20:00
3:51 AM,48.9,44.1,83,29.70,10.0,WNW,3.5,-,N/A,,Overcast,300,2013-05-12 07:51:00
4:51 AM,48.0,44.1,86,29.69,10.0,Calm,Calm,-,N/A,,Overcast,0,2013-05-12 08:51:00
5:16 AM,46.4,42.8,87,29.69,10.0,South,3.5,-,N/A,,Mostly Cloudy,180,2013-05-12 09:16:00
5:38 AM,48.2,44.6,87,29.70,10.0,WSW,3.5,-,N/A,,Overcast,240,2013-05-12 09:38:00
5:51 AM,48.0,45.0,89,29.70,10.0,ESE,5.8,-,N/A,,Overcast,110,2013-05-12 09:51:00
6:51 AM,48.9,46.0,90,29.69,10.0,Calm,Calm,-,N/A,,Overcast,0,2013-05-12 10:51:00
7:51 AM,53.1,46.0,77,29.70,10.0,SSE,5.8,-,N/A,,Mostly Cloudy,160,2013-05-12 11:51:00
8:51 AM,54.0,43.0,66,29.67,10.0,Calm,Calm,-,N/A,,Partly Cloudy,0,2013-05-12 12:51:00
9:51 AM,57.0,39.0,51,29.67,10.0,West,8.1,-,N/A,,Clear,270,2013-05-12 13:51:00
10:51 AM,57.0,39.0,51,29.66,10.0,WNW,9.2,16.1,N/A,,Scattered Clouds,290,2013-05-12 14:51:00
11:51 AM,55.9,37.9,51,29.65,10.0,WSW,10.4,16.1,N/A,,Overcast,240,2013-05-12 15:51:00
12:51 PM,54.0,39.9,59,29.66,10.0,West,12.7,18.4,N/A,,Overcast,260,2013-05-12 16:51:00
1:51 PM,55.0,43.0,64,29.66,10.0,West,8.1,17.3,N/A,,Overcast,280,2013-05-12 17:51:00
2:51 PM,52.0,33.1,49,29.68,10.0,West,10.4,23.0,N/A,,Overcast,270,2013-05-12 18:51:00
3:51 PM,54.0,33.1,45,29.68,10.0,WNW,4.6,-,0.00,,Overcast,290,2013-05-12 19:51:00
4:51 PM,53.1,30.9,43,29.69,10.0,West,10.4,-,N/A,,Scattered Clouds,280,2013-05-12 20:51:00
5:51 PM,53.1,27.0,37,29.70,10.0,WNW,11.5,20.7,N/A,,Mostly Cloudy,290,2013-05-12 21:51:00
6:51 PM,51.1,23.0,33,29.73,10.0,WNW,11.5,17.3,N/A,,Scattered Clouds,290,2013-05-12 22:51:00
7:51 PM,48.0,21.9,36,29.75,10.0,West,5.8,18.4,N/A,,Mostly Cloudy,270,2013-05-12 23:51:00
8:51 PM,45.0,24.1,44,29.77,10.0,SW,6.9,-,N/A,,Clear,230,2013-05-13 00:51:00
9:51 PM,44.1,26.1,49,29.79,10.0,Variable,5.8,-,N/A,,Partly Cloudy,0,2013-05-13 01:51:00
10:51 PM,42.1,25.0,51,29.81,10.0,WSW,5.8,-,N/A,,Clear,250,2013-05-13 02:51:00
11:51 PM,41.0,27.0,57,29.80,10.0,SW,15.0,24.2,N/A,,Clear,220,2013-05-13 03:51:00